FW5120 Weather Reports


Display with metric or nautical units.
time (UTC)temp
F
wind
direction
speed
MPH
gust
MPH
rain 1hr
in
rain 24hr
in
rain mn
in
humidity
%
barometer
mb
20260506194540 59 250 0.0 3.0 0.00 0.00 0.00 82 1013.0
20260506193039 61 276 2.0 5.0 0.00 0.00 0.00 80 1012.8
20260506191540 59 197 0.0 4.0 0.00 0.00 0.00 83 1012.6
20260506190038 59 236 0.0 3.0 0.00 0.00 0.00 85 1012.4
20260506184537 59 242 1.0 4.0 0.00 0.00 0.00 86 1012.1
20260506183037 60 257 0.0 1.0 0.00 0.00 0.00 84 1012.0
20260506181538 62 257 0.0 2.0 0.00 0.00 0.00 81 1012.0
20260506180036 63 257 0.0 2.0 0.00 0.00 0.00 79 1011.9
20260506174537 64 259 1.0 3.0 0.00 0.00 0.00 77 1011.9
20260506173035 65 263 1.0 4.0 0.00 0.00 0.00 74 1011.9
20260506171534 66 236 3.0 8.0 0.00 0.00 0.00 72 1011.9
20260506170033 67 258 4.0 7.0 0.00 0.00 0.00 70 1011.8
20260506164534 67 220 2.0 4.0 0.00 0.00 0.00 71 1011.7
20260506163034 67 255 1.0 6.0 0.00 0.00 0.00 71 1011.8
20260506161535 68 220 3.0 5.0 0.00 0.00 0.00 72 1011.8
20260506160030 68 209 2.0 6.0 0.00 0.00 0.00 71 1012.0
20260506154530 69 219 2.0 4.0 0.00 0.00 0.00 70 1012.2
20260506153040 68 227 3.0 7.0 0.00 0.00 0.00 68 1012.2
20260506151528 68 271 3.0 13.0 0.00 0.00 0.00 69 1012.2
20260506150028 69 207 2.0 10.0 0.00 0.00 0.00 68 1012.3
20260506144546 69 252 5.0 9.0 0.00 0.00 0.00 69 1012.2
20260506143026 71 49 1.0 12.0 0.00 0.00 0.00 68 1012.2
20260506141524 70 267 0.0 7.0 0.00 0.00 0.00 69 1012.5
20260506140035 67 236 2.0 8.0 0.00 0.00 0.00 71 1012.5
20260506134530 67 221 0.0 5.0 0.00 0.00 0.00 73 1012.4
20260506133022 67 232 2.0 5.0 0.00 0.00 0.00 72 1012.5
20260506131527 67 231 1.0 4.0 0.00 0.00 0.00 73 1012.6
20260506130018 67 257 3.0 7.0 0.00 0.00 0.00 72 1012.5
20260506124519 69 236 2.0 7.0 0.00 0.00 0.00 69 1012.5
20260506123028 69 256 2.0 6.0 0.00 0.00 0.00 68 1012.6
20260506121516 70 227 2.0 9.0 0.00 0.00 0.00 69 1012.6
20260506120024 69 240 2.0 9.0 0.00 0.00 0.00 69 1012.8
20260506114519 68 244 3.0 9.0 0.00 0.01 0.00 70 1012.9
20260506113012 67 244 4.0 9.0 0.00 0.01 0.00 71 1013.1
20260506111510 66 234 6.0 9.0 0.00 0.01 0.00 71 1013.3
20260506110010 65 248 3.0 7.0 0.00 0.01 0.00 72 1013.4
20260506104513 65 239 3.0 10.0 0.00 0.01 0.00 73 1013.5
20260506103010 66 288 4.0 13.0 0.00 0.01 0.00 70 1013.7
20260506101508 66 263 1.0 7.0 0.00 0.01 0.00 70 1013.9
20260506100016 64 258 2.0 8.0 0.00 0.01 0.00 71 1014.1
20260506094508 65 261 3.0 9.0 0.00 0.01 0.00 69 1014.2
20260506093007 65 246 3.0 7.0 0.00 0.01 0.00 71 1014.3
20260506091506 66 220 3.0 10.0 0.00 0.01 0.00 72 1014.3
20260506090005 67 256 2.0 9.0 0.00 0.01 0.00 68 1014.2
20260506084506 69 207 5.0 11.0 0.00 0.01 0.00 68 1013.9
20260506083006 70 257 6.0 10.0 0.00 0.01 0.00 66 1013.7
20260506081507 69 284 1.0 5.0 0.00 0.01 0.00 67 1013.4
20260506073058 69 268 0.0 5.0 0.00 0.01 0.00 67 1013.5
20260506071555 68 260 1.0 5.0 0.00 0.01 0.00 67 1013.7
20260506061548 65 82 0.0 3.0 0.00 0.01 0.00 73 1013.9
20260506044545 56 195 3.0 7.0 0.00 0.01 0.00 85 1013.9
20260506043031 55 242 0.0 1.0 0.00 0.01 0.00 86 1014.2
20260506041532 54 242 1.0 2.0 0.00 0.01 0.00 85 1014.2
20260506040029 55 242 1.0 3.0 0.00 0.01 0.00 83 1014.1
20260506034529 56 225 0.0 1.0 0.00 0.01 0.00 81 1014.0
20260506033030 57 225 0.0 2.0 0.00 0.01 0.00 80 1014.0
20260506031541 56 225 0.0 3.0 0.00 0.01 0.00 80 1014.2
20260506030031 57 225 1.0 3.0 0.00 0.01 0.00 80 1014.2
20260506024530 57 224 0.0 3.0 0.00 0.01 0.00 78 1014.2
20260506023026 57 244 1.0 3.0 0.00 0.01 0.00 78 1014.3
20260506021525 56 241 2.0 4.0 0.00 0.01 0.00 80 1014.2
20260506020025 57 254 0.0 4.0 0.00 0.01 0.00 77 1014.3
20260506014524 57 245 3.0 5.0 0.00 0.01 0.00 77 1014.2
20260506013023 57 252 3.0 6.0 0.00 0.01 0.00 77 1014.1
20260506011521 58 220 2.0 4.0 0.00 0.01 0.00 76 1014.2
20260506010045 58 250 2.0 6.0 0.00 0.01 0.00 75 1014.3
20260506004517 57 240 4.0 7.0 0.00 0.01 0.00 77 1014.3
20260506003015 57 241 2.0 7.0 0.00 0.01 0.00 79 1014.5
20260506001514 56 254 2.0 8.0 0.00 0.01 0.00 80 1014.4
20260506000014 55 261 2.0 5.0 0.00 0.01 0.00 82 1014.4
20260505234509 55 263 3.0 7.0 0.00 0.01 0.00 83 1014.3
20260505233008 54 263 2.0 7.0 0.00 0.01 0.00 85 1014.5
20260505231510 53 252 0.0 2.0 0.00 0.01 0.00 84 1014.5
20260505230005 54 252 1.0 3.0 0.00 0.01 0.00 85 1014.6
20260505224503 53 228 3.0 6.0 0.00 0.01 0.00 88 1014.7
20260505223100 51 167 2.0 3.0 0.00 0.01 0.00 89 1014.5
20260505221557 51 261 1.0 4.0 0.00 0.01 0.00 87 1014.8
20260505220054 52 259 2.0 6.0 0.00 0.01 0.00 87 1014.9
20260505214614 53 5 0.0 1.0 0.00 0.01 0.01 85 1014.8
20260505213055 54 5 0.0 2.0 0.00 0.01 0.01 83 1015.0
20260505211552 56 5 0.0 3.0 0.00 0.01 0.01 80 1015.1
20260505210153 57 174 2.0 4.0 0.00 0.01 0.01 78 1015.2
20260505204550 58 195 1.0 7.0 0.00 0.01 0.01 77 1015.3
20260505203049 58 196 3.0 8.0 0.00 0.01 0.01 77 1015.2
20260505201554 58 214 3.0 9.0 0.00 0.01 0.01 76 1015.3
20260505200048 59 271 1.0 7.0 0.00 0.01 0.01 75 1015.3